Time,TemperatureF,DewpointF,PressureIn,WindDirection,WindDirectionDegrees,WindSpeedMPH,WindSpeedGustMPH,Humidity,HourlyPrecipIn,Conditions,Clouds,dailyrainin,SoftwareType,DateUTC
2013-01-08 00:00:00,21.3,19.6,30.42,NNW,337,0.0,0.0,93,0.00,BKN,,0.00,WeatherDisplay:10.37,2013-01-08 05:00:00,
2013-01-08 00:01:00,21.1,19.4,30.42,NNW,337,0.2,0.0,93,0.00,BKN,,0.00,WeatherDisplay:10.37,2013-01-08 05:01:00,
2013-01-08 00:06:00,21.1,19.4,30.42,NNW,337,0.0,2.3,93,0.00,BKN,,0.00,WeatherDisplay:10.37,2013-01-08 05:06:00,
2013-01-08 00:11:00,20.9,19.2,30.42,NNW,337,0.0,0.0,93,0.00,SCT,,0.00,WeatherDisplay:10.37,2013-01-08 05:11:00,
2013-01-08 00:16:00,20.7,19.0,30.43,NNW,337,0.0,0.0,93,0.00,SCT,,0.00,WeatherDisplay:10.37,2013-01-08 05:16:00,
2013-01-08 00:21:00,19.9,18.2,30.44,NNW,337,0.0,0.0,93,0.00,SCT,,0.00,WeatherDisplay:10.37,2013-01-08 05:21:00,
2013-01-08 00:26:00,19.7,18.0,30.45,NNW,337,0.0,0.0,93,0.00,SCT,,0.00,WeatherDisplay:10.37,2013-01-08 05:26:00,
2013-01-08 00:31:00,19.6,17.9,30.45,NNW,337,0.0,0.0,93,0.00,SCT,,0.00,WeatherDisplay:10.37,2013-01-08 05:31:00,
2013-01-08 00:36:00,19.4,17.7,30.45,NNW,337,0.0,0.0,93,0.00,SCT,,0.00,WeatherDisplay:10.37,2013-01-08 05:36:00,
2013-01-08 00:41:00,19.4,17.7,30.45,NNW,337,0.0,0.0,93,0.00,SCT,,0.00,WeatherDisplay:10.37,2013-01-08 05:41:00,
2013-01-08 00:46:00,19.4,17.7,30.46,NNW,337,0.0,0.0,93,0.00,SCT,,0.00,WeatherDisplay:10.37,2013-01-08 05:46:00,
2013-01-08 00:51:00,19.8,18.1,30.45,NNW,337,0.0,0.0,93,0.00,SCT,,0.00,WeatherDisplay:10.37,2013-01-08 05:51:00,
2013-01-08 00:56:00,19.9,18.2,30.44,NNW,337,0.0,0.0,93,0.00,SCT,,0.00,WeatherDisplay:10.37,2013-01-08 05:56:00,
2013-01-08 01:01:00,20.3,18.6,30.45,NNW,337,0.0,0.0,93,0.00,CLR,,0.00,WeatherDisplay:10.37,2013-01-08 06:01:00,
2013-01-08 01:06:00,20.4,18.7,30.43,NNW,337,0.0,0.0,93,0.00,CLR,,0.00,WeatherDisplay:10.37,2013-01-08 06:06:00,
2013-01-08 01:11:00,20.6,18.9,30.43,NNW,337,0.0,0.0,93,0.00,CLR,,0.00,WeatherDisplay:10.37,2013-01-08 06:11:00,
2013-01-08 01:16:00,20.6,18.9,30.43,NNW,337,0.0,0.0,93,0.00,CLR,,0.00,WeatherDisplay:10.37,2013-01-08 06:16:00,
2013-01-08 01:21:00,20.6,18.9,30.43,NNW,337,0.0,0.0,93,0.00,CLR,,0.00,WeatherDisplay:10.37,2013-01-08 06:21:00,
2013-01-08 01:26:00,20.9,19.2,30.43,NNW,337,0.0,0.0,93,0.00,CLR,,0.00,WeatherDisplay:10.37,2013-01-08 06:26:00,
2013-01-08 01:31:00,21.1,19.4,30.41,NNW,337,0.0,0.0,93,0.00,CLR,,0.00,WeatherDisplay:10.37,2013-01-08 06:31:00,
2013-01-08 01:36:00,21.2,19.5,30.41,NNW,337,0.0,0.0,93,0.00,CLR,,0.00,WeatherDisplay:10.37,2013-01-08 06:36:00,
2013-01-08 01:41:00,21.8,20.1,30.39,NNW,337,0.0,0.0,93,0.00,CLR,,0.00,WeatherDisplay:10.37,2013-01-08 06:41:00,
2013-01-08 01:46:00,21.7,20.0,30.39,NNW,337,0.0,0.0,93,0.00,CLR,,0.00,WeatherDisplay:10.37,2013-01-08 06:46:00,
2013-01-08 01:51:00,21.8,20.1,30.39,NNW,337,0.0,0.0,93,0.00,CLR,,0.00,WeatherDisplay:10.37,2013-01-08 06:51:00,
2013-01-08 01:56:00,21.9,20.2,30.38,NNW,337,0.0,0.0,93,0.00,CLR,,0.00,WeatherDisplay:10.37,2013-01-08 06:56:00,
2013-01-08 02:01:00,22.1,20.4,30.38,NNW,337,0.0,0.0,93,0.00,CLR,,0.00,WeatherDisplay:10.37,2013-01-08 07:01:00,
2013-01-08 02:06:00,22.5,20.8,30.38,NNW,337,0.0,0.0,93,0.00,CLR,,0.00,WeatherDisplay:10.37,2013-01-08 07:06:00,
2013-01-08 02:11:00,22.4,20.7,30.37,NNW,337,0.0,0.0,93,0.00,CLR,,0.00,WeatherDisplay:10.37,2013-01-08 07:11:00,
2013-01-08 02:16:00,22.4,20.7,30.37,NNW,337,0.0,0.0,93,0.00,CLR,,0.00,WeatherDisplay:10.37,2013-01-08 07:16:00,
2013-01-08 02:21:00,22.1,20.4,30.38,NNW,337,0.0,0.0,93,0.00,CLR,,0.00,WeatherDisplay:10.37,2013-01-08 07:21:00,
2013-01-08 02:26:00,21.7,20.0,30.38,NNW,337,0.0,0.0,93,0.00,CLR,,0.00,WeatherDisplay:10.37,2013-01-08 07:26:00,
2013-01-08 02:31:00,21.5,19.8,30.38,NNW,337,0.0,0.0,93,0.00,CLR,,0.00,WeatherDisplay:10.37,2013-01-08 07:31:00,
2013-01-08 02:36:00,21.5,19.8,30.38,NNW,337,0.0,0.0,93,0.00,CLR,,0.00,WeatherDisplay:10.37,2013-01-08 07:36:00,
2013-01-08 02:41:00,21.9,20.2,30.38,WSW,247,0.1,1.2,93,0.00,CLR,,0.00,WeatherDisplay:10.37,2013-01-08 07:41:00,
2013-01-08 02:46:00,21.9,20.2,30.37,NNE,22,0.0,0.0,93,0.00,CLR,,0.00,WeatherDisplay:10.37,2013-01-08 07:46:00,
2013-01-08 02:51:00,22.0,20.3,30.36,WSW,247,0.0,0.0,93,0.00,CLR,,0.00,WeatherDisplay:10.37,2013-01-08 07:51:00,
2013-01-08 02:56:00,21.9,20.2,30.36,WSW,247,0.0,1.2,93,0.00,CLR,,0.00,WeatherDisplay:10.37,2013-01-08 07:56:00,
2013-01-08 03:01:00,22.3,20.6,30.36,WSW,247,0.2,1.2,93,0.00,CLR,,0.00,WeatherDisplay:10.37,2013-01-08 08:01:00,
2013-01-08 03:06:00,22.5,20.8,30.35,WSW,247,0.1,1.2,93,0.00,CLR,,0.00,WeatherDisplay:10.37,2013-01-08 08:06:00,
2013-01-08 03:11:00,22.8,21.1,30.34,SE,135,0.8,2.3,93,0.00,CLR,,0.00,WeatherDisplay:10.37,2013-01-08 08:11:00,
2013-01-08 03:16:00,22.9,21.2,30.33,SE,135,0.2,1.2,93,0.00,CLR,,0.00,WeatherDisplay:10.37,2013-01-08 08:16:00,
2013-01-08 03:21:00,23.8,22.1,30.32,SE,135,0.9,2.3,93,0.00,CLR,,0.00,WeatherDisplay:10.37,2013-01-08 08:21:00,
2013-01-08 03:26:00,23.8,22.1,30.30,SE,135,0.0,0.0,93,0.00,CLR,,0.00,WeatherDisplay:10.37,2013-01-08 08:26:00,
2013-01-08 03:31:00,23.6,21.9,30.30,SW,225,0.0,2.3,93,0.00,CLR,,0.00,WeatherDisplay:10.37,2013-01-08 08:31:00,
2013-01-08 03:36:00,23.7,22.0,30.29,SW,225,0.0,0.0,93,0.00,CLR,,0.00,WeatherDisplay:10.37,2013-01-08 08:36:00,
2013-01-08 03:41:00,23.5,21.8,30.29,WSW,247,0.2,1.2,93,0.00,CLR,,0.00,WeatherDisplay:10.37,2013-01-08 08:41:00,
2013-01-08 03:46:00,23.7,22.0,30.29,West,270,0.3,2.3,93,0.00,CLR,,0.00,WeatherDisplay:10.37,2013-01-08 08:46:00,
2013-01-08 03:51:00,24.0,22.3,30.27,West,270,0.0,0.0,93,0.00,CLR,,0.00,WeatherDisplay:10.37,2013-01-08 08:51:00,
2013-01-08 03:56:00,24.7,23.0,30.27,SW,225,0.9,2.3,93,0.00,CLR,,0.00,WeatherDisplay:10.37,2013-01-08 08:56:00,
2013-01-08 04:01:00,25.3,23.8,30.25,SW,225,0.9,2.3,94,0.00,CLR,,0.00,WeatherDisplay:10.37,2013-01-08 09:01:00,
2013-01-08 04:06:00,26.1,24.6,30.23,NNW,337,0.5,2.3,94,0.00,CLR,,0.00,WeatherDisplay:10.37,2013-01-08 09:06:00,
2013-01-08 04:11:00,26.2,24.7,30.20,SSW,202,0.9,2.3,94,0.00,CLR,,0.00,WeatherDisplay:10.37,2013-01-08 09:11:00,
2013-01-08 04:16:00,26.6,25.1,30.18,SSE,157,0.5,2.3,94,0.00,CLR,,0.00,WeatherDisplay:10.37,2013-01-08 09:16:00,
2013-01-08 04:21:00,27.1,25.6,30.17,SE,135,0.8,3.5,94,0.00,CLR,,0.00,WeatherDisplay:10.37,2013-01-08 09:21:00,
2013-01-08 04:26:00,27.4,25.9,30.16,South,180,0.7,2.3,94,0.00,CLR,,0.00,WeatherDisplay:10.37,2013-01-08 09:26:00,
2013-01-08 04:31:00,27.5,26.0,30.16,SSW,202,0.7,2.3,94,0.00,CLR,,0.00,WeatherDisplay:10.37,2013-01-08 09:31:00,
2013-01-08 04:36:00,27.7,26.2,30.16,SSW,202,0.3,1.2,94,0.00,CLR,,0.00,WeatherDisplay:10.37,2013-01-08 09:36:00,
2013-01-08 04:41:00,28.3,26.8,30.16,South,180,0.8,2.3,94,0.00,CLR,,0.00,WeatherDisplay:10.37,2013-01-08 09:41:00,
2013-01-08 04:46:00,28.1,26.6,30.16,SW,225,0.3,2.3,94,0.00,CLR,,0.00,WeatherDisplay:10.37,2013-01-08 09:46:00,
2013-01-08 04:51:00,27.7,26.2,30.16,SE,135,0.4,2.3,94,0.00,CLR,,0.00,WeatherDisplay:10.37,2013-01-08 09:51:00,
2013-01-08 04:56:00,28.0,26.5,30.15,WNW,292,1.2,2.3,94,0.00,CLR,,0.00,WeatherDisplay:10.37,2013-01-08 09:56:00,
2013-01-08 05:01:00,28.6,27.1,30.14,SW,225,1.6,3.5,94,0.00,CLR,,0.00,WeatherDisplay:10.37,2013-01-08 10:01:00,
2013-01-08 05:06:00,29.3,27.3,30.14,SE,135,1.3,3.5,92,0.00,CLR,,0.00,WeatherDisplay:10.37,2013-01-08 10:06:00,
2013-01-08 05:11:00,29.6,27.6,30.13,South,180,0.3,5.8,92,0.00,CLR,,0.00,WeatherDisplay:10.37,2013-01-08 10:11:00,
2013-01-08 05:16:00,29.5,27.7,30.13,SE,135,1.1,2.3,93,0.00,CLR,,0.00,WeatherDisplay:10.37,2013-01-08 10:16:00,
2013-01-08 05:21:00,29.5,28.0,30.12,South,180,1.0,4.0,94,0.00,CLR,,0.00,WeatherDisplay:10.37,2013-01-08 10:21:00,
2013-01-08 05:26:00,29.6,27.8,30.12,South,180,1.5,2.3,93,0.00,CLR,,0.00,WeatherDisplay:10.37,2013-01-08 10:26:00,
2013-01-08 05:31:00,29.8,28.3,30.12,North,360,1.6,3.5,94,0.00,CLR,,0.00,WeatherDisplay:10.37,2013-01-08 10:31:00,
2013-01-08 05:36:00,29.9,27.9,30.11,SE,135,0.8,8.1,92,0.00,CLR,,0.00,WeatherDisplay:10.37,2013-01-08 10:36:00,
2013-01-08 05:41:00,30.4,28.1,30.11,SW,225,1.2,3.5,91,0.00,CLR,,0.00,WeatherDisplay:10.37,2013-01-08 10:41:00,
2013-01-08 05:46:00,30.5,28.5,30.10,NNW,337,0.7,2.3,92,0.00,CLR,,0.00,WeatherDisplay:10.37,2013-01-08 10:46:00,
2013-01-08 05:51:00,30.7,28.4,30.10,West,270,1.7,3.5,91,0.00,CLR,,0.00,WeatherDisplay:10.37,2013-01-08 10:51:00,
2013-01-08 05:56:00,30.9,28.6,30.10,South,180,2.1,5.0,91,0.00,CLR,,0.00,WeatherDisplay:10.37,2013-01-08 10:56:00,
2013-01-08 06:01:00,31.0,28.7,30.09,SW,225,1.6,3.5,91,0.00,CLR,,0.00,WeatherDisplay:10.37,2013-01-08 11:01:00,
2013-01-08 06:06:00,30.9,28.3,30.08,SW,225,1.1,2.3,90,0.00,CLR,,0.00,WeatherDisplay:10.37,2013-01-08 11:06:00,
2013-01-08 06:11:00,30.9,28.3,30.08,NW,315,1.3,2.3,90,0.00,CLR,,0.00,WeatherDisplay:10.37,2013-01-08 11:11:00,
2013-01-08 06:16:00,31.1,28.5,30.08,SSW,202,0.8,2.3,90,0.00,CLR,,0.00,WeatherDisplay:10.37,2013-01-08 11:16:00,
2013-01-08 06:21:00,30.9,28.3,30.08,SSW,202,1.4,3.5,90,0.00,CLR,,0.00,WeatherDisplay:10.37,2013-01-08 11:21:00,
2013-01-08 06:26:00,30.9,28.3,30.08,SE,135,1.1,2.3,90,0.00,CLR,,0.00,WeatherDisplay:10.37,2013-01-08 11:26:00,
2013-01-08 06:31:00,30.9,28.6,30.07,North,360,1.1,3.5,91,0.00,CLR,,0.00,WeatherDisplay:10.37,2013-01-08 11:31:00,
2013-01-08 06:36:00,31.2,28.9,30.07,SE,135,1.6,3.5,91,0.00,CLR,,0.00,WeatherDisplay:10.37,2013-01-08 11:36:00,
2013-01-08 06:41:00,31.2,28.3,30.07,SSE,157,0.9,3.5,89,0.00,CLR,,0.00,WeatherDisplay:10.37,2013-01-08 11:41:00,
2013-01-08 06:46:00,31.1,28.5,30.06,NNW,337,1.7,3.5,90,0.00,CLR,,0.00,WeatherDisplay:10.37,2013-01-08 11:46:00,
2013-01-08 06:51:00,31.3,28.4,30.06,WNW,292,1.6,3.5,89,0.00,CLR,,0.00,WeatherDisplay:10.37,2013-01-08 11:51:00,
2013-01-08 06:56:00,31.3,28.2,30.06,South,180,2.1,5.8,88,0.00,CLR,,0.00,WeatherDisplay:10.37,2013-01-08 11:56:00,
2013-01-08 07:01:00,31.2,28.3,30.05,NE,45,1.2,3.5,89,0.00,CLR,,0.00,WeatherDisplay:10.37,2013-01-08 12:01:00,
2013-01-08 07:06:00,31.3,28.2,30.05,West,270,1.9,3.5,88,0.00,CLR,,0.00,WeatherDisplay:10.37,2013-01-08 12:06:00,
2013-01-08 07:11:00,31.5,28.4,30.05,NNW,337,2.1,4.0,88,0.00,CLR,,0.00,WeatherDisplay:10.37,2013-01-08 12:11:00,
2013-01-08 07:16:00,31.5,28.6,30.04,SW,225,1.4,3.5,89,0.00,CLR,,0.00,WeatherDisplay:10.37,2013-01-08 12:16:00,
2013-01-08 07:21:00,31.8,28.4,30.04,SW,225,2.8,8.1,87,0.00,CLR,,0.00,WeatherDisplay:10.37,2013-01-08 12:21:00,
2013-01-08 07:26:00,31.9,28.5,30.04,SSW,202,2.2,6.0,87,0.00,CLR,,0.00,WeatherDisplay:10.37,2013-01-08 12:26:00,
2013-01-08 07:31:00,32.1,28.9,30.04,WSW,247,0.9,3.5,88,0.00,CLR,,0.00,WeatherDisplay:10.37,2013-01-08 12:31:00,
2013-01-08 07:36:00,32.2,28.5,30.03,West,270,1.1,2.3,86,0.00,CLR,,0.00,WeatherDisplay:10.37,2013-01-08 12:36:00,
2013-01-08 07:41:00,32.4,28.4,30.03,WNW,292,1.9,4.6,85,0.00,CLR,,0.00,WeatherDisplay:10.37,2013-01-08 12:41:00,
2013-01-08 07:46:00,32.9,28.6,30.02,SSE,157,1.9,4.6,84,0.00,CLR,,0.00,WeatherDisplay:10.37,2013-01-08 12:46:00,
2013-01-08 07:51:00,33.3,29.0,30.02,WSW,247,1.3,4.6,84,0.00,CLR,,0.00,WeatherDisplay:10.37,2013-01-08 12:51:00,
2013-01-08 07:56:00,33.5,29.5,30.02,SSE,157,0.9,5.8,85,0.00,CLR,,0.00,WeatherDisplay:10.37,2013-01-08 12:56:00,
2013-01-08 08:01:00,33.8,29.2,30.01,SE,135,0.9,4.6,83,0.00,CLR,,0.00,WeatherDisplay:10.37,2013-01-08 13:01:00,
2013-01-08 08:06:00,34.2,29.0,30.00,WSW,247,1.2,2.3,81,0.00,CLR,,0.00,WeatherDisplay:10.37,2013-01-08 13:06:00,
2013-01-08 08:11:00,34.7,29.8,29.99,WNW,292,1.4,3.5,82,0.00,CLR,,0.00,WeatherDisplay:10.37,2013-01-08 13:11:00,
2013-01-08 08:16:00,35.1,30.2,29.98,SSE,157,1.5,3.5,82,0.00,CLR,,0.00,WeatherDisplay:10.37,2013-01-08 13:16:00,
2013-01-08 08:21:00,35.5,29.6,29.96,NW,315,3.2,10.4,79,0.00,CLR,,0.00,WeatherDisplay:10.37,2013-01-08 13:21:00,
2013-01-08 08:26:00,35.9,29.4,29.95,SSW,202,1.2,2.3,77,0.00,CLR,,0.00,WeatherDisplay:10.37,2013-01-08 13:26:00,
2013-01-08 08:31:00,36.3,29.5,29.88,South,180,2.1,5.8,76,0.00,CLR,,0.00,WeatherDisplay:10.37,2013-01-08 13:31:00,
2013-01-08 08:36:00,36.9,29.4,29.80,North,360,2.1,6.9,74,0.00,CLR,,0.00,WeatherDisplay:10.37,2013-01-08 13:36:00,
2013-01-08 08:41:00,37.3,30.1,29.77,NNE,22,1.1,5.8,75,0.00,CLR,,0.00,WeatherDisplay:10.37,2013-01-08 13:41:00,
2013-01-08 08:46:00,37.6,29.4,29.75,West,270,3.7,12.7,72,0.00,CLR,,0.00,WeatherDisplay:10.37,2013-01-08 13:46:00,
2013-01-08 08:51:00,37.8,29.6,29.73,WNW,292,2.5,9.0,72,0.00,CLR,,0.00,WeatherDisplay:10.37,2013-01-08 13:51:00,
2013-01-08 08:56:00,37.9,29.3,29.72,North,360,3.6,9.2,71,0.00,CLR,,0.00,WeatherDisplay:10.37,2013-01-08 13:56:00,
2013-01-08 09:01:00,38.2,29.6,29.70,SW,225,2.5,9.2,71,0.00,CLR,,0.00,WeatherDisplay:10.37,2013-01-08 14:01:00,
2013-01-08 09:06:00,38.4,29.8,29.68,West,270,2.4,11.5,71,0.00,CLR,,0.00,WeatherDisplay:10.37,2013-01-08 14:06:00,
2013-01-08 09:11:00,38.6,29.7,29.67,NE,45,1.4,8.1,70,0.00,CLR,,0.00,WeatherDisplay:10.37,2013-01-08 14:11:00,
2013-01-08 09:16:00,38.9,29.6,29.64,South,180,3.5,6.0,69,0.00,CLR,,0.00,WeatherDisplay:10.37,2013-01-08 14:16:00,
2013-01-08 09:21:00,39.0,29.3,29.63,West,270,2.3,11.5,68,0.00,CLR,,0.00,WeatherDisplay:10.37,2013-01-08 14:21:00,
2013-01-08 09:26:00,39.2,29.5,29.61,SE,135,2.1,6.9,68,0.00,CLR,,0.00,WeatherDisplay:10.37,2013-01-08 14:26:00,
2013-01-08 09:31:00,39.3,29.3,29.62,West,270,2.0,11.5,67,0.00,CLR,,0.00,WeatherDisplay:10.37,2013-01-08 14:31:00,
2013-01-08 09:36:00,39.4,29.3,29.62,South,180,1.2,6.9,67,0.00,CLR,,0.00,WeatherDisplay:10.37,2013-01-08 14:36:00,
2013-01-08 09:41:00,39.4,29.3,29.62,NW,315,3.0,11.5,67,0.00,CLR,,0.00,WeatherDisplay:10.37,2013-01-08 14:41:00,
2013-01-08 09:46:00,39.7,29.3,29.61,SW,225,5.9,13.8,66,0.00,CLR,,0.00,WeatherDisplay:10.37,2013-01-08 14:46:00,
2013-01-08 09:51:00,39.8,29.4,29.59,West,270,3.9,11.5,66,0.00,CLR,,0.00,WeatherDisplay:10.37,2013-01-08 14:51:00,
2013-01-08 09:56:00,40.1,29.3,29.59,WNW,292,3.4,10.4,65,0.00,CLR,,0.00,WeatherDisplay:10.37,2013-01-08 14:56:00,
2013-01-08 10:01:00,40.5,29.7,29.58,NNW,337,3.6,10.4,65,0.00,CLR,,0.00,WeatherDisplay:10.37,2013-01-08 15:01:00,
2013-01-08 10:06:00,40.7,29.5,29.57,West,270,3.2,6.0,64,0.00,CLR,,0.00,WeatherDisplay:10.37,2013-01-08 15:06:00,
2013-01-08 10:11:00,40.9,29.7,29.56,WNW,292,2.7,8.1,64,0.00,CLR,,0.00,WeatherDisplay:10.37,2013-01-08 15:11:00,
2013-01-08 10:16:00,41.2,29.5,29.55,North,360,2.4,5.8,63,0.00,CLR,,0.00,WeatherDisplay:10.37,2013-01-08 15:16:00,
2013-01-08 10:21:00,41.3,29.6,29.53,SE,135,3.5,6.9,63,0.00,CLR,,0.00,WeatherDisplay:10.37,2013-01-08 15:21:00,
2013-01-08 10:26:00,41.5,29.8,29.52,SSE,157,1.9,3.5,63,0.00,CLR,,0.00,WeatherDisplay:10.37,2013-01-08 15:26:00,
2013-01-08 10:31:00,41.6,29.5,29.49,SE,135,3.0,10.4,62,0.00,CLR,,0.00,WeatherDisplay:10.37,2013-01-08 15:31:00,
2013-01-08 10:36:00,42.0,29.9,29.49,West,270,2.2,4.6,62,0.00,CLR,,0.00,WeatherDisplay:10.37,2013-01-08 15:36:00,
2013-01-08 10:41:00,42.4,29.9,29.48,West,270,3.0,6.9,61,0.00,CLR,,0.00,WeatherDisplay:10.37,2013-01-08 15:41:00,
2013-01-08 10:46:00,42.4,29.9,29.47,North,360,4.1,11.5,61,0.00,CLR,,0.00,WeatherDisplay:10.37,2013-01-08 15:46:00,
2013-01-08 10:51:00,42.5,30.0,29.45,WNW,292,1.5,6.9,61,0.00,CLR,,0.00,WeatherDisplay:10.37,2013-01-08 15:51:00,
2013-01-08 10:56:00,42.8,29.9,29.44,WNW,292,3.3,11.5,60,0.00,CLR,,0.00,WeatherDisplay:10.37,2013-01-08 15:56:00,
2013-01-08 11:01:00,43.1,30.1,29.42,WSW,247,4.3,5.8,60,0.00,CLR,,0.00,WeatherDisplay:10.37,2013-01-08 16:01:00,
2013-01-08 11:06:00,43.1,29.7,29.41,NW,315,6.6,17.3,59,0.00,CLR,,0.00,WeatherDisplay:10.37,2013-01-08 16:06:00,
2013-01-08 11:11:00,43.4,29.6,29.39,NW,315,3.5,8.1,58,0.00,CLR,,0.00,WeatherDisplay:10.37,2013-01-08 16:11:00,
2013-01-08 11:16:00,44.0,29.7,29.38,West,270,3.2,6.9,57,0.00,CLR,,0.00,WeatherDisplay:10.37,2013-01-08 16:16:00,
2013-01-08 11:21:00,44.6,29.9,29.35,WNW,292,3.0,4.6,56,0.00,CLR,,0.00,WeatherDisplay:10.37,2013-01-08 16:21:00,
2013-01-08 11:26:00,44.7,30.0,29.32,NW,315,1.6,3.5,56,0.00,CLR,,0.00,WeatherDisplay:10.37,2013-01-08 16:26:00,
2013-01-08 11:31:00,44.9,30.1,29.31,SSW,202,2.4,6.9,56,0.00,CLR,,0.00,WeatherDisplay:10.37,2013-01-08 16:31:00,
2013-01-08 11:36:00,45.2,30.4,29.31,WSW,247,1.9,6.9,56,0.00,CLR,,0.00,WeatherDisplay:10.37,2013-01-08 16:36:00,
2013-01-08 11:41:00,45.2,30.4,29.29,WNW,292,4.6,6.0,56,0.00,CLR,,0.00,WeatherDisplay:10.37,2013-01-08 16:41:00,
2013-01-08 11:46:00,45.4,30.2,29.29,North,360,5.2,11.5,55,0.00,CLR,,0.00,WeatherDisplay:10.37,2013-01-08 16:46:00,
2013-01-08 11:51:00,45.4,30.6,29.28,SE,135,3.3,8.1,56,0.00,CLR,,0.00,WeatherDisplay:10.37,2013-01-08 16:51:00,
2013-01-08 11:56:00,45.8,30.1,29.27,SW,225,3.3,11.5,54,0.00,CLR,,0.00,WeatherDisplay:10.37,2013-01-08 16:56:00,
2013-01-08 12:01:00,45.8,30.1,29.27,South,180,3.0,4.6,54,0.00,CLR,,0.00,WeatherDisplay:10.37,2013-01-08 17:01:00,
2013-01-08 12:06:00,45.8,30.1,29.25,SW,225,2.3,6.9,54,0.00,CLR,,0.00,WeatherDisplay:10.37,2013-01-08 17:06:00,
2013-01-08 12:11:00,46.0,30.3,29.25,WNW,292,2.7,5.8,54,0.00,CLR,,0.00,WeatherDisplay:10.37,2013-01-08 17:11:00,
2013-01-08 12:16:00,46.3,30.5,29.23,WNW,292,4.0,9.2,54,0.00,CLR,,0.00,WeatherDisplay:10.37,2013-01-08 17:16:00,
2013-01-08 12:21:00,46.2,30.5,29.23,SSW,202,4.2,12.7,54,0.00,CLR,,0.00,WeatherDisplay:10.37,2013-01-08 17:21:00,
2013-01-08 12:26:00,45.9,30.2,29.22,WNW,292,4.5,11.5,54,0.00,CLR,,0.00,WeatherDisplay:10.37,2013-01-08 17:26:00,
2013-01-08 12:31:00,45.8,30.1,29.21,WSW,247,3.9,9.2,54,0.00,CLR,,0.00,WeatherDisplay:10.37,2013-01-08 17:31:00,
2013-01-08 12:36:00,46.0,30.3,29.24,West,270,2.4,9.2,54,0.00,CLR,,0.00,WeatherDisplay:10.37,2013-01-08 17:36:00,
2013-01-08 12:41:00,45.9,30.2,29.25,West,270,2.1,8.0,54,0.00,CLR,,0.00,WeatherDisplay:10.37,2013-01-08 17:41:00,
2013-01-08 12:46:00,46.2,30.0,29.23,WNW,292,2.3,5.8,53,0.00,CLR,,0.00,WeatherDisplay:10.37,2013-01-08 17:46:00,
2013-01-08 12:51:00,46.1,30.4,29.20,West,270,1.9,5.8,54,0.00,CLR,,0.00,WeatherDisplay:10.37,2013-01-08 17:51:00,
2013-01-08 13:14:00,46.6,29.9,29.22,West,270,1.8,9.2,52,0.00,CLR,,0.00,WeatherDisplay:10.37,2013-01-08 18:14:00,
2013-01-08 13:19:00,46.3,29.6,29.22,WSW,247,2.3,8.1,52,0.00,CLR,,0.00,WeatherDisplay:10.37,2013-01-08 18:19:00,
2013-01-08 13:24:00,46.3,29.6,29.21,NW,315,4.3,8.1,52,0.00,CLR,,0.00,WeatherDisplay:10.37,2013-01-08 18:24:00,
2013-01-08 13:25:00,45.9,29.7,29.25,WNW,292,2.4,11.5,53,0.00,CLR,,0.00,WeatherDisplay:10.37,2013-01-08 18:25:00,
2013-01-08 13:29:00,45.9,29.7,29.23,WSW,247,1.2,11.5,53,0.00,CLR,,0.00,WeatherDisplay:10.37,2013-01-08 18:29:00,
2013-01-08 13:34:00,45.9,29.7,29.25,WNW,292,1.6,11.5,53,0.00,CLR,,0.00,WeatherDisplay:10.37,2013-01-08 18:34:00,
2013-01-08 13:39:00,45.9,29.7,29.25,West,270,3.3,5.8,53,0.00,CLR,,0.00,WeatherDisplay:10.37,2013-01-08 18:39:00,
2013-01-08 13:44:00,46.1,29.9,29.26,SE,135,1.5,9.2,53,0.00,CLR,,0.00,WeatherDisplay:10.37,2013-01-08 18:44:00,
2013-01-08 13:49:00,46.2,29.5,29.25,SE,135,1.3,2.3,52,0.00,CLR,,0.00,WeatherDisplay:10.37,2013-01-08 18:49:00,
2013-01-08 13:54:00,46.3,30.1,29.25,WNW,292,1.8,5.8,53,0.00,CLR,,0.00,WeatherDisplay:10.37,2013-01-08 18:54:00,
2013-01-08 13:56:00,46.8,30.6,29.24,West,270,0.8,2.3,53,0.00,CLR,,0.00,WeatherDisplay:10.37,2013-01-08 18:56:00,
2013-01-08 13:59:00,46.5,30.3,29.22,West,270,1.7,2.3,53,0.00,CLR,,0.00,WeatherDisplay:10.37,2013-01-08 18:59:00,
2013-01-08 14:04:00,46.6,29.9,29.24,South,180,1.7,2.3,52,0.00,CLR,,0.00,WeatherDisplay:10.37,2013-01-08 19:04:00,
2013-01-08 14:09:00,46.8,30.6,29.24,WNW,292,1.1,2.3,53,0.00,CLR,,0.00,WeatherDisplay:10.37,2013-01-08 19:09:00,
2013-01-08 14:14:00,47.2,30.0,29.24,WSW,247,1.8,8.1,51,0.00,CLR,,0.00,WeatherDisplay:10.37,2013-01-08 19:14:00,
2013-01-08 14:19:00,47.2,30.0,29.23,North,360,3.4,9.2,51,0.00,CLR,,0.00,WeatherDisplay:10.37,2013-01-08 19:19:00,
2013-01-08 14:24:00,47.0,29.3,29.21,NNE,22,1.7,6.0,50,0.00,CLR,,0.00,WeatherDisplay:10.37,2013-01-08 19:24:00,
2013-01-08 14:29:00,46.8,29.1,29.23,NW,315,1.5,4.6,50,0.00,CLR,,0.00,WeatherDisplay:10.37,2013-01-08 19:29:00,
2013-01-08 14:34:00,46.6,29.4,29.27,North,360,2.8,6.9,51,0.00,CLR,,0.00,WeatherDisplay:10.37,2013-01-08 19:34:00,
2013-01-08 14:39:00,46.4,28.8,29.28,WSW,247,2.0,6.9,50,0.00,CLR,,0.00,WeatherDisplay:10.37,2013-01-08 19:39:00,
2013-01-08 14:44:00,46.4,29.2,29.29,NNW,337,1.4,2.3,51,0.00,CLR,,0.00,WeatherDisplay:10.37,2013-01-08 19:44:00,
2013-01-08 14:49:00,46.4,28.8,29.29,WNW,292,3.6,4.6,50,0.00,CLR,,0.00,WeatherDisplay:10.37,2013-01-08 19:49:00,
2013-01-08 14:54:00,46.3,29.1,29.30,North,360,1.0,4.6,51,0.00,CLR,,0.00,WeatherDisplay:10.37,2013-01-08 19:54:00,
2013-01-08 14:56:00,46.3,29.1,29.32,WSW,247,1.4,3.5,51,0.00,CLR,,0.00,WeatherDisplay:10.37,2013-01-08 19:56:00,
2013-01-08 14:59:00,46.2,29.1,29.28,WNW,292,1.3,3.5,51,0.00,CLR,,0.00,WeatherDisplay:10.37,2013-01-08 19:59:00,
2013-01-08 15:04:00,46.2,29.5,29.29,NNW,337,0.5,3.5,52,0.00,CLR,,0.00,WeatherDisplay:10.37,2013-01-08 20:04:00,
2013-01-08 15:14:00,46.2,29.1,29.33,West,270,0.2,2.3,51,0.00,CLR,,0.00,WeatherDisplay:10.37,2013-01-08 20:14:00,
2013-01-08 15:19:00,45.9,29.2,29.33,WSW,247,0.0,1.2,52,0.00,CLR,,0.00,WeatherDisplay:10.37,2013-01-08 20:19:00,
2013-01-08 15:24:00,45.6,29.4,29.34,WNW,292,0.0,1.2,53,0.00,CLR,,0.00,WeatherDisplay:10.37,2013-01-08 20:24:00,
2013-01-08 15:29:00,45.4,29.7,29.32,West,270,2.6,6.9,54,0.00,CLR,,0.00,WeatherDisplay:10.37,2013-01-08 20:29:00,
2013-01-08 15:34:00,45.2,30.0,29.35,West,270,0.7,6.9,55,0.00,CLR,,0.00,WeatherDisplay:10.37,2013-01-08 20:34:00,
2013-01-08 15:39:00,45.1,29.4,29.35,NNW,337,0.3,2.3,54,0.00,CLR,,0.00,WeatherDisplay:10.37,2013-01-08 20:39:00,
2013-01-08 15:44:00,44.9,29.7,29.36,South,180,1.8,1.8,55,0.00,CLR,,0.00,WeatherDisplay:10.37,2013-01-08 20:44:00,
2013-01-08 15:46:00,44.8,29.6,29.39,NNW,337,1.5,2.3,55,0.00,CLR,,0.00,WeatherDisplay:10.37,2013-01-08 20:46:00,
2013-01-08 15:49:00,44.6,29.4,29.36,SW,225,1.1,2.3,55,0.00,CLR,,0.00,WeatherDisplay:10.37,2013-01-08 20:49:00,
2013-01-08 15:54:00,44.5,29.3,29.38,WNW,292,2.1,2.3,55,0.00,CLR,,0.00,WeatherDisplay:10.37,2013-01-08 20:54:00,
2013-01-08 15:58:00,43.9,29.6,29.40,SE,135,0.7,3.5,57,0.00,CLR,,0.00,WeatherDisplay:10.37,2013-01-08 20:58:00,
2013-01-08 15:59:00,44.5,29.3,29.39,WNW,292,1.4,3.5,55,0.00,CLR,,0.00,WeatherDisplay:10.37,2013-01-08 20:59:00,
2013-01-08 16:04:00,44.1,29.4,29.39,West,270,1.3,3.5,56,0.00,CLR,,0.00,WeatherDisplay:10.37,2013-01-08 21:04:00,
2013-01-08 16:09:00,43.8,29.1,29.40,NW,315,0.9,2.3,56,0.00,CLR,,0.00,WeatherDisplay:10.37,2013-01-08 21:09:00,
2013-01-08 16:14:00,43.5,29.7,29.41,WNW,292,0.9,2.3,58,0.00,CLR,,0.00,WeatherDisplay:10.37,2013-01-08 21:14:00,
2013-01-08 16:16:00,42.7,29.8,29.45,West,270,1.0,2.3,60,0.00,CLR,,0.00,WeatherDisplay:10.37,2013-01-08 21:16:00,
2013-01-08 16:19:00,43.2,29.4,29.43,North,360,0.8,2.3,58,0.00,CLR,,0.00,WeatherDisplay:10.37,2013-01-08 21:19:00,
2013-01-08 16:24:00,42.7,29.4,29.44,West,270,1.6,2.3,59,0.00,CLR,,0.00,WeatherDisplay:10.37,2013-01-08 21:24:00,
2013-01-08 16:29:00,42.2,29.3,29.45,NNW,337,0.6,2.3,60,0.00,CLR,,0.00,WeatherDisplay:10.37,2013-01-08 21:29:00,
2013-01-08 16:34:00,41.6,29.5,29.46,West,270,0.7,2.3,62,0.00,CLR,,0.00,WeatherDisplay:10.37,2013-01-08 21:34:00,
2013-01-08 16:39:00,40.8,29.6,29.48,West,270,0.6,2.3,64,0.00,CLR,,0.00,WeatherDisplay:10.37,2013-01-08 21:39:00,
2013-01-08 16:44:00,39.8,29.4,29.51,West,270,1.1,2.3,66,0.00,CLR,,0.00,WeatherDisplay:10.37,2013-01-08 21:44:00,
2013-01-08 16:49:00,39.3,29.3,29.53,West,270,0.8,2.3,67,0.00,CLR,,0.00,WeatherDisplay:10.37,2013-01-08 21:49:00,
2013-01-08 16:54:00,38.8,29.1,29.54,West,270,0.4,1.2,68,0.00,CLR,,0.00,WeatherDisplay:10.37,2013-01-08 21:54:00,
2013-01-08 16:59:00,38.2,28.9,29.56,West,270,0.0,0.0,69,0.00,CLR,,0.00,WeatherDisplay:10.37,2013-01-08 21:59:00,
2013-01-08 17:04:00,37.4,28.2,29.58,West,270,0.0,0.0,69,0.00,CLR,,0.00,WeatherDisplay:10.37,2013-01-08 22:04:00,
2013-01-08 17:09:00,36.5,28.0,29.59,West,270,0.0,0.0,71,0.00,CLR,,0.00,WeatherDisplay:10.37,2013-01-08 22:09:00,
2013-01-08 17:14:00,35.7,27.9,29.61,West,270,0.0,0.0,73,0.00,CLR,,0.00,WeatherDisplay:10.37,2013-01-08 22:14:00,
2013-01-08 17:19:00,35.1,27.6,29.62,West,270,0.0,0.0,74,0.00,CLR,,0.00,WeatherDisplay:10.37,2013-01-08 22:19:00,
2013-01-08 17:24:00,34.6,27.8,29.64,West,270,0.0,0.0,76,0.00,CLR,,0.00,WeatherDisplay:10.37,2013-01-08 22:24:00,
2013-01-08 17:29:00,33.9,27.4,29.66,West,270,0.0,0.0,77,0.00,CLR,,0.00,WeatherDisplay:10.37,2013-01-08 22:29:00,
2013-01-08 17:34:00,33.6,27.8,29.67,West,270,0.0,0.0,79,0.00,CLR,,0.00,WeatherDisplay:10.37,2013-01-08 22:34:00,
2013-01-08 17:39:00,33.3,27.5,29.68,West,270,0.0,0.0,79,0.00,CLR,,0.00,WeatherDisplay:10.37,2013-01-08 22:39:00,
2013-01-08 17:44:00,32.9,27.4,29.69,West,270,0.0,0.0,80,0.00,CLR,,0.00,WeatherDisplay:10.37,2013-01-08 22:44:00,
2013-01-08 17:49:00,32.9,28.0,29.70,West,270,0.0,0.0,82,0.00,CLR,,0.00,WeatherDisplay:10.37,2013-01-08 22:49:00,
2013-01-08 17:54:00,32.7,27.8,29.71,West,270,0.0,0.0,82,0.00,CLR,,0.00,WeatherDisplay:10.37,2013-01-08 22:54:00,
2013-01-08 17:59:00,32.4,27.5,29.71,West,270,0.0,0.0,82,0.00,CLR,,0.00,WeatherDisplay:10.37,2013-01-08 22:59:00,
2013-01-08 18:04:00,32.1,27.5,29.72,West,270,0.0,0.0,83,0.00,CLR,,0.00,WeatherDisplay:10.37,2013-01-08 23:04:00,
2013-01-08 18:09:00,31.8,27.2,29.73,West,270,0.0,0.0,83,0.00,CLR,,0.00,WeatherDisplay:10.37,2013-01-08 23:09:00,
2013-01-08 18:14:00,31.4,27.4,29.74,West,270,0.0,0.0,85,0.00,CLR,,0.00,WeatherDisplay:10.37,2013-01-08 23:14:00,
2013-01-08 18:20:00,31.3,27.3,29.74,West,270,0.0,0.0,85,0.00,CLR,,0.00,WeatherDisplay:10.37,2013-01-08 23:20:00,
2013-01-08 18:25:00,31.1,27.1,29.74,West,270,0.0,0.0,85,0.00,CLR,,0.00,WeatherDisplay:10.37,2013-01-08 23:25:00,
2013-01-08 18:30:00,30.6,26.9,29.75,West,270,0.0,0.0,86,0.00,CLR,,0.00,WeatherDisplay:10.37,2013-01-08 23:30:00,
2013-01-08 18:35:00,30.4,27.0,29.75,West,270,0.0,0.0,87,0.00,CLR,,0.00,WeatherDisplay:10.37,2013-01-08 23:35:00,
2013-01-08 18:40:00,30.2,27.1,29.76,West,270,0.0,0.0,88,0.00,CLR,,0.00,WeatherDisplay:10.37,2013-01-08 23:40:00,
2013-01-08 18:45:00,29.9,27.1,29.76,West,270,0.0,0.0,89,0.00,CLR,,0.00,WeatherDisplay:10.37,2013-01-08 23:45:00,
2013-01-08 18:50:00,29.7,27.1,29.76,West,270,0.0,0.0,90,0.00,CLR,,0.00,WeatherDisplay:10.37,2013-01-08 23:50:00,
2013-01-08 18:55:00,29.9,27.3,29.77,West,270,0.0,0.0,90,0.00,CLR,,0.00,WeatherDisplay:10.37,2013-01-08 23:55:00,
2013-01-08 19:00:00,29.9,27.1,29.77,West,270,0.0,0.0,89,0.00,CLR,,0.00,WeatherDisplay:10.37,2013-01-09 00:00:00,
2013-01-08 19:05:00,29.8,27.0,29.77,West,270,0.0,0.0,89,0.00,CLR,,0.00,WeatherDisplay:10.37,2013-01-09 00:05:00,
2013-01-08 19:10:00,29.9,27.3,29.78,West,270,0.4,1.2,90,0.00,CLR,,0.00,WeatherDisplay:10.37,2013-01-09 00:10:00,
2013-01-08 19:15:00,29.6,26.8,29.78,West,270,0.0,0.0,89,0.00,CLR,,0.00,WeatherDisplay:10.37,2013-01-09 00:15:00,
2013-01-08 19:20:00,29.2,26.4,29.78,West,270,0.0,0.0,89,0.00,CLR,,0.00,WeatherDisplay:10.37,2013-01-09 00:20:00,
2013-01-08 19:25:00,28.9,26.9,29.78,West,270,0.0,0.0,92,0.00,CLR,,0.00,WeatherDisplay:10.37,2013-01-09 00:25:00,
2013-01-08 19:30:00,28.9,27.1,29.78,West,270,0.0,0.0,93,0.00,CLR,,0.00,WeatherDisplay:10.37,2013-01-09 00:30:00,
2013-01-08 19:35:00,28.9,27.4,29.78,West,270,0.0,0.0,94,0.00,CLR,,0.00,WeatherDisplay:10.37,2013-01-09 00:35:00,
2013-01-08 19:40:00,29.1,27.6,29.78,West,270,0.0,0.0,94,0.00,CLR,,0.00,WeatherDisplay:10.37,2013-01-09 00:40:00,
2013-01-08 19:45:00,29.1,27.6,29.78,West,270,0.0,0.0,94,0.00,CLR,,0.00,WeatherDisplay:10.37,2013-01-09 00:45:00,
2013-01-08 19:50:00,29.2,27.7,29.78,West,270,0.0,0.0,94,0.00,CLR,,0.00,WeatherDisplay:10.37,2013-01-09 00:50:00,
2013-01-08 19:55:00,29.5,28.0,29.78,West,270,0.0,0.0,94,0.00,CLR,,0.00,WeatherDisplay:10.37,2013-01-09 00:55:00,
2013-01-08 20:00:00,29.9,28.4,29.78,West,270,0.0,1.2,94,0.00,CLR,,0.00,WeatherDisplay:10.37,2013-01-09 01:00:00,
2013-01-08 20:05:00,30.9,28.6,29.77,West,270,0.3,1.2,91,0.00,CLR,,0.00,WeatherDisplay:10.37,2013-01-09 01:05:00,
2013-01-08 20:10:00,30.9,28.3,29.76,West,270,0.0,0.0,90,0.00,CLR,,0.00,WeatherDisplay:10.37,2013-01-09 01:10:00,
2013-01-08 20:15:00,30.9,28.6,29.76,West,270,0.1,1.2,91,0.00,CLR,,0.00,WeatherDisplay:10.37,2013-01-09 01:15:00,
2013-01-08 20:20:00,30.9,28.3,29.76,West,270,0.0,0.0,90,0.00,CLR,,0.00,WeatherDisplay:10.37,2013-01-09 01:20:00,
2013-01-08 20:25:00,30.6,28.3,29.76,West,270,0.0,2.3,91,0.00,CLR,,0.00,WeatherDisplay:10.37,2013-01-09 01:25:00,
2013-01-08 20:30:00,30.4,28.1,29.76,West,270,0.0,0.0,91,0.00,CLR,,0.00,WeatherDisplay:10.37,2013-01-09 01:30:00,
2013-01-08 20:35:00,29.9,27.9,29.76,West,270,0.0,0.0,92,0.00,CLR,,0.00,WeatherDisplay:10.37,2013-01-09 01:35:00,
2013-01-08 20:40:00,29.6,27.8,29.77,West,270,0.0,0.0,93,0.00,CLR,,0.00,WeatherDisplay:10.37,2013-01-09 01:40:00,
2013-01-08 20:45:00,29.3,27.8,29.77,West,270,0.2,0.0,94,0.00,CLR,,0.00,WeatherDisplay:10.37,2013-01-09 01:45:00,
2013-01-08 20:50:00,29.3,27.8,29.78,West,270,0.0,1.2,94,0.00,CLR,,0.00,WeatherDisplay:10.37,2013-01-09 01:50:00,
2013-01-08 20:55:00,29.4,27.9,29.78,West,270,0.0,0.0,94,0.00,CLR,,0.00,WeatherDisplay:10.37,2013-01-09 01:55:00,
2013-01-08 21:00:00,29.3,27.8,29.78,West,270,0.3,2.3,94,0.00,CLR,,0.00,WeatherDisplay:10.37,2013-01-09 02:00:00,
2013-01-08 21:05:00,29.3,27.8,29.77,West,270,0.0,0.0,94,0.00,CLR,,0.00,WeatherDisplay:10.37,2013-01-09 02:05:00,
2013-01-08 21:10:00,29.2,27.7,29.77,West,270,0.0,0.0,94,0.00,CLR,,0.00,WeatherDisplay:10.37,2013-01-09 02:10:00,
2013-01-08 21:15:00,29.2,27.7,29.78,West,270,0.0,0.0,94,0.00,CLR,,0.00,WeatherDisplay:10.37,2013-01-09 02:15:00,
2013-01-08 21:20:00,29.5,28.0,29.77,West,270,0.0,0.0,94,0.00,CLR,,0.00,WeatherDisplay:10.37,2013-01-09 02:20:00,
2013-01-08 21:25:00,29.4,27.9,29.77,West,270,0.0,0.0,94,0.00,CLR,,0.00,WeatherDisplay:10.37,2013-01-09 02:25:00,
2013-01-08 21:30:00,28.9,27.4,29.77,West,270,0.0,0.0,94,0.00,CLR,,0.00,WeatherDisplay:10.37,2013-01-09 02:30:00,
2013-01-08 21:35:00,28.9,27.4,29.77,West,270,0.0,0.0,94,0.00,CLR,,0.00,WeatherDisplay:10.37,2013-01-09 02:35:00,
2013-01-08 21:40:00,28.7,27.2,29.78,West,270,0.0,0.0,94,0.00,CLR,,0.00,WeatherDisplay:10.37,2013-01-09 02:40:00,
2013-01-08 21:45:00,28.7,27.2,29.78,West,270,0.0,0.0,94,0.00,CLR,,0.00,WeatherDisplay:10.37,2013-01-09 02:45:00,
2013-01-08 21:50:00,29.1,27.6,29.78,West,270,0.0,0.0,94,0.00,CLR,,0.00,WeatherDisplay:10.37,2013-01-09 02:50:00,
2013-01-08 21:55:00,29.3,27.8,29.78,West,270,0.6,2.3,94,0.00,CLR,,0.00,WeatherDisplay:10.37,2013-01-09 02:55:00,
2013-01-08 22:00:00,29.6,28.1,29.76,West,270,0.0,0.0,94,0.00,CLR,,0.00,WeatherDisplay:10.37,2013-01-09 03:00:00,
2013-01-08 22:05:00,29.5,28.0,29.76,West,270,0.0,0.0,94,0.00,CLR,,0.00,WeatherDisplay:10.37,2013-01-09 03:05:00,
2013-01-08 22:10:00,29.7,28.2,29.75,West,270,0.0,0.0,94,0.00,CLR,,0.00,WeatherDisplay:10.37,2013-01-09 03:10:00,
2013-01-08 22:15:00,29.7,28.2,29.75,West,270,0.0,0.0,94,0.00,CLR,,0.00,WeatherDisplay:10.37,2013-01-09 03:15:00,
2013-01-08 22:20:00,29.8,28.3,29.75,West,270,0.0,0.0,94,0.00,CLR,,0.00,WeatherDisplay:10.37,2013-01-09 03:20:00,
2013-01-08 22:25:00,30.0,28.5,29.74,West,270,0.3,1.2,94,0.00,CLR,,0.00,WeatherDisplay:10.37,2013-01-09 03:25:00,
2013-01-08 22:30:00,30.7,29.2,29.73,West,270,0.3,1.2,94,0.00,CLR,,0.00,WeatherDisplay:10.37,2013-01-09 03:30:00,
2013-01-08 22:35:00,30.6,28.8,29.73,West,270,0.3,1.2,93,0.00,CLR,,0.00,WeatherDisplay:10.37,2013-01-09 03:35:00,
2013-01-08 22:40:00,30.5,28.7,29.73,West,270,0.5,2.3,93,0.00,CLR,,0.00,WeatherDisplay:10.37,2013-01-09 03:40:00,
2013-01-08 22:45:00,30.5,28.7,29.73,West,270,0.2,1.2,93,0.00,CLR,,0.00,WeatherDisplay:10.37,2013-01-09 03:45:00,
2013-01-08 22:50:00,30.1,28.3,29.73,West,270,0.0,0.0,93,0.00,CLR,,0.00,WeatherDisplay:10.37,2013-01-09 03:50:00,
2013-01-08 22:55:00,29.7,28.2,29.74,West,270,0.0,0.0,94,0.00,CLR,,0.00,WeatherDisplay:10.37,2013-01-09 03:55:00,
2013-01-08 23:01:00,29.4,27.9,29.75,West,270,0.0,0.0,94,0.00,CLR,,0.00,WeatherDisplay:10.37,2013-01-09 04:01:00,
2013-01-08 23:06:00,29.1,27.6,29.75,West,270,0.0,0.0,94,0.00,CLR,,0.00,WeatherDisplay:10.37,2013-01-09 04:06:00,
2013-01-08 23:11:00,28.8,27.3,29.76,West,270,0.0,0.0,94,0.00,CLR,,0.00,WeatherDisplay:10.37,2013-01-09 04:11:00,
2013-01-08 23:16:00,28.2,26.7,29.76,West,270,0.0,0.0,94,0.00,CLR,,0.00,WeatherDisplay:10.37,2013-01-09 04:16:00,
2013-01-08 23:21:00,27.9,26.4,29.77,West,270,0.0,0.0,94,0.00,CLR,,0.00,WeatherDisplay:10.37,2013-01-09 04:21:00,
2013-01-08 23:26:00,27.9,26.4,29.78,West,270,0.0,0.0,94,0.00,CLR,,0.00,WeatherDisplay:10.37,2013-01-09 04:26:00,
2013-01-08 23:31:00,27.7,26.2,29.78,West,270,0.0,0.0,94,0.00,CLR,,0.00,WeatherDisplay:10.37,2013-01-09 04:31:00,
2013-01-08 23:36:00,27.8,26.3,29.77,West,270,0.0,0.0,94,0.00,CLR,,0.00,WeatherDisplay:10.37,2013-01-09 04:36:00,
2013-01-08 23:41:00,27.9,26.4,29.77,West,270,0.0,0.0,94,0.00,CLR,,0.00,WeatherDisplay:10.37,2013-01-09 04:41:00,
2013-01-08 23:46:00,27.8,26.3,29.77,West,270,0.0,0.0,94,0.00,CLR,,0.00,WeatherDisplay:10.37,2013-01-09 04:46:00,
2013-01-08 23:51:00,27.7,26.2,29.78,West,270,0.0,0.0,94,0.00,CLR,,0.00,WeatherDisplay:10.37,2013-01-09 04:51:00,
2013-01-08 23:56:00,27.7,26.2,29.78,West,270,0.0,0.0,94,0.00,CLR,,0.00,WeatherDisplay:10.37,2013-01-09 04:56:00,